[Date Prev][Date Next][Thread Prev][Thread Next] - [Date Index][Thread Index][Author Index]

2 Line ISS Keps 3-1



ISS
1 25544U 98067A   04061.13699943  .00020883  00000-0  19166-3 0  2894
2 25544  51.6297 155.9263 0005777 227.0874 212.7593 15.67677172301360


----
Via the sarex mailing list at AMSAT.ORG courtesy of AMSAT-NA.
To unsubscribe, send "unsubscribe sarex" to Majordomo@amsat.org



AMSAT Top AMSAT Home